Regional Weather Roundup
Issued by NWS

Home | Current Version | Previous Version | Graphics & Text | Print | Product List | Glossary Off
Versions: 1 2 3 4 5 6 7 8 9 10 11 12 13 14 15 16 17 18 19 20 21 22 23 24 25 26 27 28 29 30 31 32 33 34 35 36 37 38 39 40 41 42 43 44 45 46 47 48 49 50

000
ASUS43 KDMX 012206
RWRIA

WEATHER ROUNDUP FOR IOWA
NATIONAL WEATHER SERVICE DES MOINES IA
400 PM CST THU DEC 01 2016

NOTE: "FAIR" INDICATES FEW OR NO CLOUDS BELOW 12,000 FEET WITH NO
SIGNIFICANT WEATHER AND/OR OBSTRUCTIONS TO VISIBILITY.

* - THESE STATIONS ARE NOT NWS STATIONS...THUS NOT UNDER NWS
QUALITY CONTROL.  THEY ALSO DO NOT REPORT WEATHER SUCH
AS PRECIPITATION OR FOG.

IAZ001>003-012>014-020>022-031>034-043>046-012300-
   NORTHWEST IOWA

CITY           SKY/WX    TMP DP  RH WIND       PRES   REMARKS
CARROLL *      CLOUDY    34  30  86 W13       29.98R WCI  25
CHEROKEE *     CLOUDY    34  31  89 NW8       29.97R WCI  27
DENISON *      CLOUDY    34  28  80 W7        29.97S WCI  28
LE MARS *      CLOUDY    36  30  80 NW7       30.00R WCI  30
ORANGE CITY *  CLOUDY    32  30  93 NW9       29.97R WCI  24
SHELDON *      MIX PCPN  32  32 100 NW9       29.94S WCI  24
SIOUX CITY     CLOUDY    37  29  72 NW6       30.01R WCI  32
SPENCER        CLOUDY    34  31  88 NW18      29.95S WCI  23
STORM LAKE *   CLOUDY    34  30  86 W12       29.96R WCI  25
$$

IAZ055>058-069>071-079>083-090>094-012300-
   SOUTHWEST IOWA

CITY           SKY/WX    TMP DP  RH WIND       PRES   REMARKS
ATLANTIC *     CLOUDY    36  28  75 W7        30.00R WCI  30
AUDUBON *      CLOUDY    34  28  80 NW3       30.00R
CLARINDA *       N/A     37  28  70 W7        30.03R WCI  32
COUNCIL BLFS * CLOUDY    36  27  69 NW7       30.00S WCI  30
CRESTON *      CLOUDY    36  28  75 NW10      30.00R WCI  28
HARLAN  *      CLOUDY    36  28  75 NW7       30.03R WCI  30
LAMONI         CLOUDY    37  27  67 W9        30.00R WCI  30
RED OAK *      CLOUDY    37  28  70 W6        30.01S WCI  33
SHENANDOAH *   MOCLDY    39  28  65 NW7       30.03R WCI  34
$$

IAZ047>049-059>061-072>074-084-012300-
   CENTRAL IOWA

CITY           SKY/WX    TMP DP  RH WIND       PRES   REMARKS
AMES           CLOUDY    36  32  85 W10       29.98R WCI  28
ANKENY *       CLOUDY    36  32  87 W12G18    30.01R WCI  27
BOONE *        CLOUDY    36  30  80 W10       29.97R WCI  28
CHARITON *       N/A     37  28  70 W7        29.99R WCI  32
DES MOINES     CLOUDY    37  28  70 W10       30.00R WCI  30
GRINNELL*      CLOUDY    37  31  81 W12       29.98R WCI  29
KNOXVILLE *    CLOUDY    37  28  70 W10       29.98S WCI  30
MARSHALLTOWN   CLOUDY    37  32  82 W10       29.95R WCI  30
NEWTON *       CLOUDY    36  30  80 W13       29.97R WCI  27
PELLA *        MOCLDY    37  29  73 W7        29.99S WCI  32
PERRY *        CLOUDY    35  32  88 W12       29.99S WCI  27
$$

IAZ004>006-015-016-023>025-035-036-012300-
   NORTH CENTRAL IOWA

CITY           SKY/WX    TMP DP  RH WIND       PRES   REMARKS
ALGONA *       CLOUDY    36  32  87 NW10      29.95R WCI  28
CLARION *      CLOUDY    36  34  93 NW9       29.95R WCI  29
ESTHERVILLE    CLOUDY    34  31  88 NW13      29.94R WCI  25
FORT DODGE *   CLOUDY    36  28  75 W7        29.97R WCI  30
MASON CITY     CLOUDY    35  31  85 NW12      29.94R WCI  27
FOREST CITY *  CLOUDY    34  32  93 NW9       29.94R WCI  26
WEBSTER CITY * CLOUDY    36  36 100 W10       29.94R WCI  28
IOWA FALLS *   CLOUDY    37  33  85 W9        29.95R WCI  30
$$

IAZ007>011-017>019-026>030-037>042-050>054-066-012300-
   NORTHEAST IOWA

CITY           SKY/WX    TMP DP  RH WIND       PRES   REMARKS
CEDAR RAPIDS   CLOUDY    37  34  89 W12       29.94S WCI  29
CHARLES CITY * CLOUDY    36  34  93 W10       29.93R WCI  28
CLINTON *      CLOUDY    38  33  82 W13       29.95R WCI  30
DECORAH *      MOCLDY    34  32  93 W8        29.90R WCI  27
DUBUQUE        CLOUDY    36  32  85 W14       29.92R WCI  27
MONTICELLO *   CLOUDY    37  34  87 W12       29.93R WCI  30
OELWEIN *      FLURRIES  36  34  93 W10       29.93S WCI  28
WATERLOO       CLOUDY    36  31  82 NW9       29.94R WCI  29
$$

IAZ064-065-067-068-078-012300-
   EAST CENTRAL IOWA

CITY           SKY/WX    TMP DP  RH WIND       PRES   REMARKS
DAVENPORT      CLOUDY    38  32  79 W12       29.95S WCI  30
IOWA CITY      CLOUDY    39  31  72 W14       29.98R WCI  31
MUSCATINE *    CLOUDY    39  30  70 W10       29.98R WCI  32
QUAD CITIES    CLOUDY    39  30  70 W12       29.96R WCI  32
$$

IAZ062-063-075>077-085>089-095>099-012300-
   SOUTHEAST IOWA

CITY           SKY/WX    TMP DP  RH WIND       PRES   REMARKS
BURLINGTON     CLOUDY    37  29  72 W9        29.99R WCI  30
FAIRFIELD *    CLOUDY    37  28  70 W10       29.98S WCI  30
FORT MADISON * CLOUDY    37  28  70 W9        30.01R WCI  31
KEOKUK *       CLOUDY    37  28  70 W9G15     30.01R WCI  31
OSKALOOSA *    CLOUDY    37  29  74 W12       29.99S WCI  29
OTTUMWA        CLOUDY    38  28  67 W12       29.99R WCI  30
WASHINGTON *   CLOUDY    37  30  75 W10       29.99R WCI  30
$$

ABBREVIATIONS USED IN REMARKS
   TC - TEMPERATURES IN CELSIUS
  WCI - WIND CHILL INDEX
   HX - HEAT INDEX
  VSB - VISIBILITY
$$





USA.gov is the U.S. government's official web portal to all federal, state and local government web resources and services.